Location: Ferintosh
(52.7647°N, 112.9692°W)
Time: 15:25:20
(UTC+00:00)

Transit 2A Rocket - Pass Details

Date: 26 May 2024
Orbit: 583 x 910 km, 66.7° (Epoch: 22 June)

Event Time Altitude Azimuth Distance (km) Brightness Sun altitude
Rises 17:29:30 0° 319° (NW) 3,361 7.9 51.1°
Reaches altitude 10° 17:31:59 10° 325° (NW) 2,470 7.4 51.4°
Maximum altitude 17:37:36 50° 41° (NE) 1,111 6.5 52.0°
Drops below altitude 10° 17:43:28 10° 116° (ESE) 2,587 8.5 52.6°
Sets 17:46:06 0° 121° (ESE) 3,534 9.0 52.9°
